TimeEDT,TemperatureF,Dew PointF,Humidity,Sea Level PressureIn,VisibilityMPH,Wind Direction,Wind SpeedMPH,Gust SpeedMPH,PrecipitationIn,Events,Conditions,WindDirDegrees,DateUTC
12:52 AM,51.1,50.0,96,30.25,9.0,Calm,Calm,-,N/A,,Clear,0,2013-08-17 04:52:00
1:52 AM,51.1,48.0,89,30.26,7.0,Calm,Calm,-,N/A,,Clear,0,2013-08-17 05:52:00
2:52 AM,50.0,46.9,89,30.26,8.0,Calm,Calm,-,N/A,,Clear,0,2013-08-17 06:52:00
3:52 AM,48.9,46.0,90,30.27,6.0,Calm,Calm,-,N/A,,Clear,0,2013-08-17 07:52:00
4:28 AM,48.2,46.4,93,30.27,6.0,Calm,Calm,-,N/A,,Scattered Clouds,0,2013-08-17 08:28:00
4:37 AM,48.2,46.4,93,30.28,5.0,Calm,Calm,-,N/A,,Mostly Cloudy,0,2013-08-17 08:37:00
4:47 AM,48.2,46.4,93,30.28,5.0,Calm,Calm,-,N/A,,Scattered Clouds,0,2013-08-17 08:47:00
4:52 AM,48.9,46.0,90,30.28,6.0,Calm,Calm,-,N/A,,Mostly Cloudy,0,2013-08-17 08:52:00
5:09 AM,48.2,46.4,93,30.28,4.0,Calm,Calm,-,N/A,,Scattered Clouds,0,2013-08-17 09:09:00
5:25 AM,48.2,46.4,93,30.29,2.5,Calm,Calm,-,N/A,,Mostly Cloudy,0,2013-08-17 09:25:00
5:34 AM,48.2,46.4,93,30.29,1.5,Calm,Calm,-,N/A,,Mostly Cloudy,0,2013-08-17 09:34:00
5:43 AM,48.2,46.4,93,30.29,0.8,Calm,Calm,-,N/A,,Mist,0,2013-08-17 09:43:00
5:52 AM,48.0,45.0,89,30.30,0.2,Calm,Calm,-,N/A,Fog,Fog,0,2013-08-17 09:52:00
6:02 AM,46.4,46.4,100,30.30,0.2,Calm,Calm,-,N/A,Fog,Fog,0,2013-08-17 10:02:00
6:07 AM,46.4,44.6,93,30.30,0.5,Calm,Calm,-,N/A,Fog,Fog,0,2013-08-17 10:07:00
6:19 AM,46.4,44.6,93,30.30,1.2,Calm,Calm,-,N/A,,Mostly Cloudy,0,2013-08-17 10:19:00
3:52 PM,78.1,46.0,32,30.25,10.0,Calm,Calm,-,N/A,,Clear,0,2013-08-17 19:52:00
4:52 PM,77.0,48.0,36,30.26,10.0,Calm,Calm,-,N/A,,Clear,0,2013-08-17 20:52:00
5:52 PM,75.0,53.1,46,30.26,10.0,Calm,Calm,-,N/A,,Clear,0,2013-08-17 21:52:00
6:52 PM,71.1,57.0,61,30.26,10.0,Calm,Calm,-,N/A,,Clear,0,2013-08-17 22:52:00
7:52 PM,64.0,57.9,80,30.27,10.0,Calm,Calm,-,N/A,,Clear,0,2013-08-17 23:52:00
8:52 PM,60.1,55.9,86,30.28,10.0,Calm,Calm,-,N/A,,Clear,0,2013-08-18 00:52:00
9:52 PM,57.0,54.0,89,30.29,10.0,Calm,Calm,-,N/A,,Clear,0,2013-08-18 01:52:00
10:52 PM,55.9,55.0,97,30.30,10.0,Calm,Calm,-,N/A,,Clear,0,2013-08-18 02:52:00
11:52 PM,55.9,54.0,93,30.30,9.0,Calm,Calm,-,N/A,,Clear,0,2013-08-18 03:52:00